COSMOS 1375 DEB, 19473

Orbit data source: Space-Track

COSMOS 1375 DEB, 19473 is space debris in LEO originally from a launch on Sun, 06 Jun 1982 UTC launched from the Plesetsk Missile And Space Complex (PKMTR). Debris objects in space refer to the collection of defunct objects orbiting the Earth. Examples of debris include non-operational satellites, rocket bodies, and fragments generated from explosions, collisions, or faulty payload assembly.

Loading next visibility...
Identifier
19473, 1982-055BM
Orbit
LEO
Country
Flag of CISCIS
Related business
Manufacturer
Unknown
Mission
Spacecraft
Bus & Motor
Unknown
Mass
Unknown
Launch date (UTC)
1982-06-06 (44 years ago)
Launch vehicle
Unknown
Launch site
Plesetsk Missile And Space Complex (PKMTR)
Object type
Payload
Rocket body
Debris
Shape & HBR
Unknown shape, 0.1 m
Radar Cross Section
Medium (>0.1 m² and <1 m²)

Expand to show TLE details & history
Last TLE update: 3 days ago

TLE from 3 days ago
0 COSMOS 1375 DEB
1 19473U 82055BM  26170.32184213  .00000690  00000-0  57585-3 0  9992
2 19473  65.8240 285.1073 0034093 235.8987 155.2373 13.94678200966410
Epoch: 2026-06-19T07:43Z
TLE epoch observation values (Epoch: 2026-06-19T07:43:27.160Z)
Latitude
28.34985°
Longitude
-84.36542°
Altitude
937.457 km
Speed
7.375 km/s
True Right ascension
19h 56m 12s
True Declination
28° 12' 36"
Sunlit
Object was in full shadow at epoch
Visualization orbit readout
Latitude
Unknown
Longitude
Unknown
Altitude
Unknown
Speed
Unknown
Apparent Right ascension
Unknown
Apparent Declination
Unknown
Sunlit
N/A
Visualization observer readout
Local Sidereal Time
00:39:27
Azimuth
Unknown
Elevation
Unknown
Doppler factor
Unknown
Orbital elements
Apogee altitude
935.636 km
Perigee altitude
885.936 km
Semi-major axis
7,288.923 km
Eccentricity
0.00341
Inclination
65.824°
RAAN
285.1073°
Arg. of periapsis
235.8987°
True anomaly
155.40031°
Mean anomaly
155.2373°
Eccentric anomaly
155.31887°
Mean motion
3.48777 °/min
Orbital period
103.22 mins
BSTAR
0.00057585
Loading maneuver chart data...
Computing Atmospheric mass density...
Loading historical data...
Loading historical data...
Loading historical data...
Loading historical data...
Loading historical data...
Loading historical data...
Loading historical data...

Documentation

Showing up to 5 results
|